Content
SEND FEEDBACK

Daily
Averages
Monthly
Summary
Belgium

ST. TRUIDEN, BELGIUM


Home > Europe > Belgium
Elevation: 246 feet     Latitude: 50 48N     Longitude: 005 12E

WEATHER
 
SELECT A DAY
Number of Records: 292,267;   Date Range: 7/1/96 - 7/27/14
 
SHARE

PRINT THIS DATA

[ ← Previous Day ]
WEATHER ALMANAC - FEBRUARY 13, 2013
[ Next Day → ]
[ °C ]   °F
Weather ElementAverageHighLow
Temperature29.7 °F35.6 °F (3:50 pm)24.8 °F (11:50 pm)
Dewpoint17.9 °F21.2 °F (4:50 am)14 °F (11:20 am)
Humidity61.1 %80 % (5:20 am)33 % (4:00 pm)
Barometer30.21 in30.31 in (7:00 pm)30.09 in (12:50 am)
Wind Speed3.9 mph6.9 mph (1:50 pm)
Wind Gust18.4 mph (11:20 pm)
Weather ElementAverage
Visibility4.7 mi
Wind DirectionESE (102 °)

Weather ElementTotal
Precipitation---
Heating Degree Days34.8 (Base 65)
Averaged from 55 records on February 13, 2013
WEATHER CONDITIONS BREAKOUT
WIND DIRECTION BREAKOUT
WEATHER BY HOUR - FEBRUARY 13, 2013
[ °C ]   °F
Local TimeTemperatureDewpointHumidityBarometerVisibilityWind DirectionWind SpeedGust SpeedPrecipitationEventsConditions
12:50 AM28.4 °F19.4 °F69 %30.09 in4.3 miNNE (30°)2.3 mphMostly Cloudy
1:00 AM28.0 °F19.0 °F59 %30.14 in4.0 miNNE (30°)2.2 mphMostly Cloudy
1:20 AM28.4 °F19.4 °F69 %30.09 in4.3 miNNE (30°)3.5 mphMostly Cloudy
1:50 AM28.4 °F19.4 °F69 %30.09 in4.3 miNNE (30°)4.6 mphMostly Cloudy
2:20 AM28.4 °F17.6 °F64 %30.09 in4.3 miEast (100°)3.5 mphMostly Cloudy
2:50 AM28.4 °F19.4 °F69 %30.09 in4.3 miNNE (30°)3.5 mphMostly Cloudy
3:20 AM26.6 °F19.4 °F74 %30.12 in3.7 miNNE (30°)4.6 mphMostly Cloudy
3:50 AM28.4 °F19.4 °F69 %30.12 in3.7 miVariable2.3 mphMostly Cloudy
4:00 AM28.0 °F19.0 °F59 %30.17 in4.0 miNorth2.2 mphMostly Cloudy
4:20 AM28.4 °F19.4 °F69 %30.12 in3.1 miNorth (350°)2.3 mphHaze
4:50 AM28.4 °F21.2 °F74 %30.12 in3.1 miVariable2.3 mphHaze
5:20 AM26.6 °F21.2 °F80 %30.12 inVariable2.3 mphHaze
5:50 AM26.6 °F21.2 °F80 %30.12 inNNE (30°)2.3 mphHaze
6:20 AM26.6 °F21.2 °F80 %30.15 inNNE (20°)2.3 mphMostly Cloudy
6:50 AM26.6 °F21.2 °F80 %30.15 inNorth (360°)2.3 mphMostly Cloudy
7:00 AM26.0 °F21.0 °F74 %30.22 in3.0 miNorth2.2 mphMist
7:20 AM26.6 °F21.2 °F80 %30.15 inCalmMostly Cloudy
7:50 AM26.6 °F21.2 °F80 %30.18 inENE (60°)2.3 mphHaze
8:20 AM26.6 °F21.2 °F80 %30.18 in2.8 miVariable1.2 mphMostly Cloudy
8:50 AM28.4 °F19.4 °F69 %30.21 in3.1 miEast (90°)3.5 mphHaze
9:20 AM30.2 °F21.2 °F69 %30.21 in3.1 miVariable2.3 mphHaze
9:50 AM30.2 °F19.4 °F64 %30.21 in3.1 miESE (120°)4.6 mphHaze
10:00 AM29.0 °F20.0 °F57 %30.27 in3.0 miESE (120°)4.5 mphHaze
10:20 AM30.2 °F19.4 °F64 %30.21 in3.7 miESE (110°)4.6 mphPartly Cloudy
10:50 AM30.2 °F17.6 °F60 %30.24 in3.7 miESE (110°)4.6 mphPartly Cloudy
11:20 AM30.2 °F14.0 °F51 %30.24 in5.0 miESE (110°)5.8 mphPartly Cloudy
11:50 AM32.0 °F14.0 °F48 %30.24 in5.0 miEast (100°)4.6 mphPartly Cloudy
12:20 PM32.0 °F14.0 °F48 %30.24 in5.0 miESE (120°)5.8 mph
12:50 PM33.8 °F15.8 °F48 %30.24 inSE (140°)4.6 mphClear
1:00 PM33.0 °F15.0 °F34 %30.29 in6.0 miSE (140°)4.5 mph
1:20 PM33.8 °F14.0 °F44 %30.24 inEast (100°)5.8 mphClear
1:50 PM33.8 °F14.0 °F44 %30.24 inESE (120°)6.9 mphClear
2:20 PM33.8 °F15.8 °F48 %30.24 inSouth (180°)4.6 mphClear
2:50 PM33.8 °F15.8 °F48 %30.24 in6.2 miVariable1.2 mphPartly Cloudy
3:20 PM33.8 °F15.8 °F48 %30.24 in6.2 miVariable2.3 mphPartly Cloudy
3:50 PM35.6 °F17.6 °F48 %30.24 in6.2 miSouth (180°)6.9 mphPartly Cloudy
4:00 PM35.0 °F17.0 °F33 %30.28 in7.0 miSouth (180°)6.7 mphScattered Clouds
4:20 PM33.8 °F15.8 °F48 %30.24 in6.2 miSE (140°)3.5 mphPartly Cloudy
4:50 PM33.8 °F15.8 °F48 %30.24 in6.2 miSouth (190°)6.9 mphScattered Clouds
5:20 PM33.8 °F15.8 °F48 %30.24 in6.2 miSouth (170°)4.6 mphScattered Clouds
5:50 PM32.0 °F15.8 °F51 %30.24 in6.2 miSSE (160°)4.6 mphScattered Clouds
6:20 PM32.0 °F15.8 °F51 %30.27 in6.2 miSSE (160°)4.6 mphScattered Clouds
6:50 PM30.2 °F17.6 °F60 %30.27 inSSE (160°)3.5 mphClear
7:00 PM31.0 °F17.0 °F42 %30.31 in7.0 miSSE (160°)4.5 mphScattered Clouds
7:20 PM30.2 °F15.8 °F55 %30.27 inSouth (180°)3.5 mphClear
7:50 PM28.4 °F17.6 °F64 %30.27 inSouth (170°)4.6 mphClear
8:20 PM28.4 °F17.6 °F64 %30.27 inSouth (170°)4.6 mphClear
8:50 PM28.4 °F17.6 °F64 %30.27 inSSE (150°)4.6 mphClear
9:20 PM28.4 °F17.6 °F64 %30.27 inSouth (170°)4.6 mphClear
9:50 PM28.4 °F17.6 °F64 %30.27 inSSE (160°)5.8 mphClear
10:00 PM28.0 °F17.0 °F51 %30.31 in7.0 miSSE (160°)4.5 mph
10:20 PM26.6 °F17.6 °F69 %30.24 inSSE (150°)4.6 mphClear
10:50 PM26.6 °F17.6 °F69 %30.24 inVariable4.6 mph16.1 mphClear
11:20 PM26.6 °F17.6 °F69 %30.24 inVariable5.8 mph18.4 mphClear
11:50 PM24.8 °F17.6 °F74 %30.24 inSE (140°)5.8 mphClear
Hourly data recorded from EBLG, located miles away from St. Truiden, Belgium







STORIES FROM OUR PARTNERS